EW2785 Weather Reports


Display with metric or nautical units.
time (UTC)temp
F
wind
direction
speed
MPH
gust
MPH
rain 1hr
in
rain 24hr
in
rain mn
in
humidity
%
barometer
mb
20260902081548 65 126 0.0 3.0 0.00 0.14 0.00 76 1018.7
20260902080041 65 149 0.0 2.0 0.00 0.14 0.00 77 1018.9
20260902074540 65 129 0.0 1.0 0.00 0.14 0.00 77 1018.9
20260902073049 65 129 0.0 1.0 0.00 0.14 0.00 78 1019.0
20260902071541 65 129 0.0 2.0 0.00 0.14 0.00 78 1018.9
20260902070039 65 129 0.0 3.0 0.00 0.14 0.00 78 1018.9
20260902064547 65 142 1.0 3.0 0.00 0.14 0.00 79 1018.9
20260902063048 65 142 0.0 4.0 0.00 0.14 0.00 79 1019.1
20260902061535 65 142 0.0 6.0 0.00 0.14 0.00 80 1018.9
20260902060034 65 138 0.0 1.0 0.00 0.14 0.00 83 1018.7
20260902054531 65 138 1.0 3.0 0.00 0.14 0.00 84 1018.5
20260902053031 65 137 0.0 1.0 0.00 0.14 0.00 85 1018.5
20260902051530 65 137 0.0 1.0 0.00 0.14 0.00 86 1018.5
20260902050028 65 137 0.0 2.0 0.00 0.14 0.00 86 1018.5
20260902044527 65 137 0.0 2.0 0.00 0.14 0.00 87 1018.3
20260902043026 65 137 0.0 5.0 0.00 0.14 0.00 87 1018.3
20260902041524 65 135 0.0 1.0 0.00 0.14 0.00 88 1018.4
20260902040023 65 135 1.0 2.0 0.00 0.14 0.14 88 1018.2
20260902034524 65 141 1.0 4.0 0.00 0.14 0.14 88 1017.9
20260902033019 65 150 0.0 2.0 0.00 0.14 0.14 88 1017.8
20260902031519 65 150 0.0 1.0 0.00 0.14 0.14 88 1017.6
20260902030017 65 150 0.0 2.0 0.00 0.14 0.14 87 1017.5
20260902024517 65 150 0.0 1.0 0.00 0.14 0.14 87 1017.6
20260902023019 65 150 0.0 3.0 0.00 0.14 0.14 87 1017.8
20260902021516 65 209 0.0 0.0 0.00 0.14 0.14 87 1017.7
20260902020015 65 209 1.0 3.0 0.00 0.14 0.14 87 1017.6
20260902014529 66 137 0.0 4.0 0.00 0.14 0.14 86 1017.5
20260902013014 65 136 0.0 1.0 0.00 0.14 0.14 86 1017.2
20260902011532 65 136 0.0 2.0 0.00 0.14 0.14 86 1017.3
20260902010012 65 136 1.0 4.0 0.00 0.14 0.14 87 1017.1
20260902004511 65 198 0.0 0.0 0.00 0.14 0.14 87 1017.3
20260902003013 65 198 0.0 0.0 0.00 0.14 0.14 87 1017.2
20260902001513 66 198 0.0 0.0 0.00 0.14 0.14 87 1017.3
20260902000010 66 213 0.0 1.0 0.00 0.14 0.14 86 1017.1
20260901234510 66 168 0.0 1.0 0.00 0.14 0.14 85 1016.9
20260901233009 66 167 0.0 1.0 0.00 0.14 0.14 85 1016.7
20260901231510 67 142 0.0 2.0 0.00 0.14 0.14 85 1016.7
20260901230009 67 142 0.0 2.0 0.00 0.14 0.14 84 1016.7
20260901224511 67 142 0.0 3.0 0.00 0.14 0.14 84 1016.5
20260901223011 67 133 1.0 4.0 0.00 0.14 0.14 84 1016.6
20260901221507 67 130 2.0 5.0 0.00 0.14 0.14 84 1016.4
20260901220007 67 128 1.0 3.0 0.00 0.14 0.14 84 1016.7
20260901214519 67 126 1.0 5.0 0.00 0.14 0.14 84 1016.7
20260901213006 67 138 1.0 5.0 0.00 0.14 0.14 83 1016.5
20260901211508 68 120 1.0 5.0 0.00 0.14 0.14 83 1016.3
20260901210007 68 153 1.0 3.0 0.00 0.14 0.14 84 1016.1
20260901204504 68 135 0.0 3.0 0.00 0.14 0.14 83 1016.1
20260901203004 68 135 2.0 4.0 0.00 0.14 0.14 82 1016.1
20260901201504 69 143 0.0 2.0 0.00 0.14 0.14 82 1016.1
20260901200114 69 176 0.0 2.0 0.00 0.14 0.14 84 1016.0
20260901194502 69 171 0.0 3.0 0.00 0.14 0.14 83 1015.9
20260901193004 69 198 0.0 5.0 0.00 0.14 0.14 83 1016.0
20260901191502 69 213 0.0 5.0 0.00 0.14 0.14 84 1016.1
20260901190002 69 215 3.0 5.0 0.00 0.14 0.14 84 1016.1
20260901184607 69 208 0.0 3.0 0.00 0.14 0.14 84 1016.2
20260901183108 68 217 0.0 5.0 0.00 0.14 0.14 85 1016.2
20260901181601 68 201 2.0 7.0 0.00 0.14 0.14 85 1016.1
20260901180057 68 220 0.0 4.0 0.00 0.14 0.14 86 1016.2
20260901174554 67 211 0.0 2.0 0.00 0.14 0.14 88 1016.2
20260901173055 66 205 0.0 5.0 0.00 0.14 0.14 89 1016.3
20260901171557 66 209 0.0 2.0 0.00 0.14 0.14 90 1016.2
20260901170050 65 171 0.0 2.0 0.00 0.14 0.14 89 1016.2
20260901164548 65 217 2.0 4.0 0.00 0.14 0.14 90 1016.3
20260901163056 65 202 0.0 4.0 0.00 0.14 0.14 91 1016.2
20260901161548 65 319 0.0 0.0 0.00 0.14 0.14 91 1016.0
20260901160044 64 338 0.0 5.0 0.00 0.14 0.14 92 1016.1
20260901154608 63 360 0.0 4.0 0.00 0.14 0.14 92 1016.0
20260901153047 63 20 0.0 3.0 0.00 0.14 0.14 92 1016.2
20260901151542 63 327 0.0 4.0 0.00 0.14 0.14 92 1016.3
20260901150049 63 333 1.0 2.0 0.00 0.14 0.14 92 1016.4
20260901144543 64 317 0.0 4.0 0.00 0.14 0.14 93 1016.3
20260901143041 64 238 0.0 1.0 0.00 0.14 0.14 93 1016.0
20260901141553 64 238 0.0 2.0 0.00 0.14 0.14 93 1015.9
20260901140040 63 237 0.0 0.0 0.00 0.14 0.14 93 1015.5
20260901134537 63 237 0.0 0.0 0.00 0.14 0.14 93 1015.5
20260901133036 63 237 0.0 0.0 0.01 0.14 0.14 93 1016.1
20260901131536 62 237 0.0 1.0 0.02 0.14 0.14 93 1016.2
20260901130034 62 243 0.0 0.0 0.03 0.14 0.14 93 1016.6
20260901124541 62 243 0.0 1.0 0.05 0.14 0.14 93 1016.5
20260901123033 62 300 0.0 0.0 0.04 0.13 0.13 93 1016.4
20260901121533 62 300 0.0 0.0 0.05 0.12 0.12 92 1016.5
20260901120031 62 300 0.0 1.0 0.05 0.11 0.11 92 1016.7
20260901114530 63 300 0.0 1.0 0.05 0.09 0.09 92 1016.7
20260901113029 63 300 0.0 5.0 0.05 0.08 0.08 92 1016.8
20260901111528 63 217 0.0 2.0 0.06 0.07 0.07 92 1016.5
20260901110026 63 217 0.0 0.0 0.05 0.05 0.05 91 1016.2
20260901104525 63 217 0.0 0.0 0.03 0.03 0.03 91 1016.1
20260901103027 63 217 0.0 0.0 0.03 0.03 0.03 91 1016.3
20260901101525 63 217 0.0 0.0 0.01 0.01 0.01 91 1016.2
20260901100023 63 217 0.0 0.0 0.00 0.00 0.00 91 1016.3
20260901094525 63 217 0.0 0.0 0.00 0.00 0.00 91 1016.1
20260901093028 63 217 0.0 0.0 0.00 0.00 0.00 91 1016.1
20260901091522 63 217 0.0 0.0 0.00 0.00 0.00 91 1015.8
20260901090020 63 217 0.0 0.0 0.00 0.00 0.00 91 1015.6
20260901084520 63 217 0.0 0.0 0.00 0.00 0.00 91 1015.8
20260901083018 63 217 0.0 0.0 0.00 0.00 0.00 90 1016.1